Idaho Falls, ID

10:12 PM MDT on April 22, 2018 (GMT -0600)
Fanning

Weather History for KIDA - September, 2013

Change the Weather History Date:

Sunday, September 15, 2013

  Actual Average Record
Temperature  
Mean Temperature 65 °F 58 °F  
Max Temperature 74 °F 75 °F 91 °F (2000)
Min Temperature 56 °F 41 °F 26 °F (1970)
Degree Days  
Heating Degree Days 0 8  
Month to date heating degree days 3 79  
Since 1 July heating degree days 3 144  
Cooling Degree Days 0 0  
Month to date cooling degree days 45 10  
Year to date cooling degree days 505 262  
Growing Degree Days 15 (Base 50)    
Moisture  
Dew Point 53 °F    
Average Humidity 68    
Maximum Humidity 86    
Minimum Humidity 49    
Precipitation  
Precipitation 0.27 in 0.02 in 0.73 in (2006)
Month to date precipitation 1.79 0.40  
Year to date precipitation 4.49 7.38  
Sea Level Pressure  
Sea Level Pressure 29.98 in    
Wind  
Wind Speed 4 mph (ENE)    
Max Wind Speed 12 mph    
Max Gust Speed 14 mph    
Visibility 10 miles    
Events Rain , Thunderstorm    
T = Trace of Precipitation, MM = Missing Value Source: NWS Daily Summary

Daily Weather History Graph

Daily Weather History Graph

Search for Another Location

Airport or City:

Astronomy

Sep. 15, 2013 Rise Set
Actual Time 7:08 AM MDT 7:37 PM MDT
Civil Twilight 6:39 AM MDT 8:06 PM MDT
Nautical Twilight 6:05 AM MDT 8:40 PM MDT
Astronomical Twilight 5:30 AM MDT 9:15 PM MDT
Moon 5:13 PM MDT (9/15) 2:44 AM MDT (9/15)
Length of Visible Light 13h 27m
Length of Day
12h 29m
Waxing Gibbous, 82% of the Moon is Illuminated
Sep 15
Waxing Gibbous
Sep 19
Full
Sep 26
Last Quarter
Oct 4
New
Oct 11
First Quarter

Hourly Weather History & Observations

Time (MDT) Temp. Dew Point Humidity Pressure Visibility Wind Dir Wind Speed Gust Speed Precip Events Conditions
12:53 AM 59.0 °F 46.9 °F 64% 29.93 in 10.0 mi Calm Calm - N/A   Mostly Cloudy
1:53 AM 59.0 °F 50.0 °F 72% 29.93 in 10.0 mi NNE 3.5 mph - N/A   Overcast
2:53 AM 62.1 °F 51.1 °F 67% 29.92 in 10.0 mi East 4.6 mph - N/A   Overcast
3:53 AM 61.0 °F 52.0 °F 72% 29.94 in 10.0 mi Calm Calm - N/A   Overcast
4:53 AM 63.0 °F 51.1 °F 65% 29.95 in 10.0 mi East 4.6 mph - N/A   Mostly Cloudy
5:53 AM 57.9 °F 51.1 °F 78% 29.96 in 10.0 mi Calm Calm - N/A   Mostly Cloudy
6:53 AM 57.0 °F 51.1 °F 81% 29.98 in 10.0 mi North 6.9 mph - N/A   Mostly Cloudy
7:53 AM 57.9 °F 53.1 °F 84% 30.00 in 10.0 mi Calm Calm - N/A   Overcast
8:53 AM 61.0 °F 53.1 °F 75% 30.01 in 10.0 mi NNE 5.8 mph - N/A   Overcast
9:53 AM 63.0 °F 53.1 °F 70% 30.01 in 10.0 mi NNE 4.6 mph - N/A   Overcast
10:53 AM 66.9 °F 53.1 °F 61% 30.01 in 10.0 mi NE 5.8 mph - 0.00 in   Overcast
11:53 AM 72.0 °F 51.1 °F 48% 30.00 in 10.0 mi Calm Calm - N/A   Overcast
12:53 PM 72.0 °F 51.1 °F 48% 29.98 in 10.0 mi NW 4.6 mph - N/A   Overcast
1:39 PM 64.4 °F 55.4 °F 73% 30.09 in 10.0 mi West 5.8 mph - 0.12 in Rain , Thunderstorm Thunderstorms and Rain
1:53 PM 64.0 °F 57.0 °F 78% 30.00 in 6.0 mi Variable 3.5 mph - 0.25 in Rain , Thunderstorm Thunderstorms and Rain
1:55 PM 64.4 °F 55.4 °F 73% 30.09 in 10.0 mi ESE 5.8 mph - 0.01 in Rain Heavy Rain
1:58 PM 66.2 °F 55.4 °F 68% 30.08 in 6.0 mi East 8.1 mph - 0.02 in Rain , Thunderstorm Thunderstorms and Rain
2:43 PM 69.8 °F 55.4 °F 60% 30.07 in 10.0 mi ENE 8.1 mph - 0.02 in   Overcast
2:53 PM 68.0 °F 55.0 °F 63% 29.97 in 10.0 mi NNE 8.1 mph - 0.02 in   Overcast
3:53 PM 70.0 °F 55.9 °F 61% 29.95 in 10.0 mi NE 4.6 mph - 0.00 in   Mostly Cloudy
4:53 PM 68.0 °F 55.0 °F 63% 29.94 in 10.0 mi East 4.6 mph - 0.00 in   Scattered Clouds
5:53 PM 71.1 °F 55.0 °F 57% 29.94 in 10.0 mi ESE 4.6 mph - N/A   Mostly Cloudy
6:53 PM 73.0 °F 55.0 °F 53% 29.92 in 10.0 mi East 4.6 mph - N/A   Scattered Clouds
7:53 PM 70.0 °F 53.1 °F 55% 29.93 in 10.0 mi ESE 6.9 mph - N/A   Partly Cloudy
8:53 PM 68.0 °F 54.0 °F 61% 29.94 in 10.0 mi SE 4.6 mph - N/A   Overcast
9:53 PM 66.9 °F 53.1 °F 61% 29.95 in 10.0 mi SE 3.5 mph - N/A   Mostly Cloudy
10:53 PM 64.9 °F 52.0 °F 63% 29.94 in 10.0 mi SE 5.8 mph - N/A   Partly Cloudy
11:53 PM 57.9 °F 52.0 °F 81% 29.94 in 10.0 mi Calm Calm - N/A   Clear